Spirit of St Louis, MO

11:55 PM CDT on September 24, 2017 (GMT -0500)
Spirit Of Saint Louis

Weather History for KSUS - February, 2014

Change the Weather History Date:

Saturday, February 22, 2014

  Actual Average Record
Temperature  
Mean Temperature 43 °F -  
Max Temperature 62 °F 45 °F 71 °F (2017)
Min Temperature 24 °F 27 °F 12 °F (2015)
Degree Days  
Heating Degree Days 22    
Moisture  
Dew Point 26 °F    
Average Humidity 61    
Maximum Humidity 87    
Minimum Humidity 22    
Precipitation  
Precipitation 0.00 in - - ()
Sea Level Pressure  
Sea Level Pressure 29.99 in    
Wind  
Wind Speed 3 mph (NNE)    
Max Wind Speed 15 mph    
Max Gust Speed 24 mph    
Visibility 10 miles    
Events      
Averages and records for this station are not official NWS values.
T = Trace of Precipitation, MM = Missing Value Source: NWS Daily Summary

Daily Weather History Graph

Daily Weather History Graph

Search for Another Location

Airport or City:

Trip Planner

Search our weather history database for the weather conditions in past years. The results will help you decide how hot, cold, wet, or windy it might be!

Date:

Astronomy

Feb. 22, 2014 Rise Set
Actual Time 6:44 AM CST 5:48 PM CST
Civil Twilight 6:17 AM CST 6:15 PM CST
Nautical Twilight 5:46 AM CST 6:45 PM CST
Astronomical Twilight 5:16 AM CST 7:16 PM CST
Moon 12:38 AM CST (2/22) 11:00 AM CST (2/22)
Length of Visible Light 11h 57m
Length of Day
11h 03m
Waning Gibbous, 50% of the Moon is Illuminated
Feb 22
Waning Gibbous
Mar 1
New
Mar 8
First Quarter
Mar 16
Full
Mar 23
Last Quarter

Hourly Weather History & Observations

Time (CST) Temp. Windchill Dew Point Humidity Pressure Visibility Wind Dir Wind Speed Gust Speed Precip Events Conditions
12:54 AM 30.9 °F - 21.9 °F 69% 29.97 in 10.0 mi Calm Calm - N/A   Clear
1:54 AM 30.0 °F - 21.9 °F 72% 29.96 in 10.0 mi Calm Calm - N/A   Clear
2:54 AM 28.9 °F - 21.9 °F 75% 29.96 in 10.0 mi Calm Calm - N/A   Clear
3:54 AM 27.0 °F - 21.0 °F 78% 29.97 in 10.0 mi Calm Calm - N/A   Clear
4:54 AM 26.1 °F - 21.0 °F 81% 29.99 in 10.0 mi Calm Calm - N/A   Clear
5:54 AM 24.1 °F - 19.9 °F 84% 29.99 in 10.0 mi Calm Calm - N/A   Clear
6:54 AM 24.1 °F - 19.9 °F 84% 30.01 in 10.0 mi Calm Calm - N/A   Clear
7:54 AM 30.0 °F - 24.1 °F 79% 30.01 in 10.0 mi Calm Calm - N/A   Clear
8:54 AM 39.9 °F - 25.0 °F 55% 30.00 in 10.0 mi Calm Calm - N/A   Partly Cloudy
9:54 AM 51.1 °F - 21.9 °F 32% 29.99 in 10.0 mi Calm Calm - N/A   Clear
10:54 AM 55.0 °F - 19.9 °F 25% 29.99 in 10.0 mi West 5.8 mph - N/A   Clear
11:54 AM 59.0 °F - 21.9 °F 24% 29.96 in 10.0 mi WNW 10.4 mph - N/A   Mostly Cloudy
12:54 PM 60.1 °F - 23.0 °F 24% 29.94 in 10.0 mi WNW 4.6 mph - N/A   Mostly Cloudy
1:54 PM 62.1 °F - 23.0 °F 22% 29.89 in 10.0 mi NW 8.1 mph - N/A   Mostly Cloudy
2:54 PM 57.0 °F - 25.0 °F 29% 29.91 in 10.0 mi NE 8.1 mph - N/A   Overcast
3:54 PM 55.0 °F - 25.0 °F 31% 29.91 in 10.0 mi NNE 11.5 mph - N/A   Overcast
4:54 PM 50.0 °F - 33.1 °F 52% 29.92 in 10.0 mi NE 15.0 mph 21.9 mph N/A   Mostly Cloudy
5:54 PM 46.0 °F 39.6 °F 32.0 °F 58% 29.96 in 10.0 mi NNE 15.0 mph 24.2 mph N/A   Overcast
6:54 PM 44.1 °F 39.0 °F 32.0 °F 63% 29.99 in 10.0 mi ENE 9.2 mph - N/A   Overcast
7:54 PM 43.0 °F 39.5 °F 32.0 °F 65% 30.01 in 10.0 mi ENE 5.8 mph - N/A   Overcast
8:54 PM 42.1 °F 36.1 °F 33.1 °F 70% 30.03 in 10.0 mi NE 10.4 mph - N/A   Overcast
9:54 PM 39.0 °F 33.4 °F 33.1 °F 79% 30.06 in 10.0 mi NNE 8.1 mph - N/A   Mostly Cloudy
10:37 PM 39.2 °F 35.0 °F 33.8 °F 81% 30.05 in 10.0 mi NNE 5.8 mph - N/A   Overcast
10:54 PM 37.9 °F 31.5 °F 33.1 °F 83% 30.06 in 10.0 mi NNE 9.2 mph - N/A   Overcast
11:01 PM 37.4 °F 30.8 °F 33.8 °F 87% 30.05 in 10.0 mi NE 9.2 mph - N/A   Overcast
11:54 PM 37.0 °F 31.0 °F 33.1 °F 86% 30.06 in 10.0 mi NNE 8.1 mph - N/A   Overcast